User: anonymous   Login
Location: New York
(40.7127°N, 74.0060°W)
Time: 01:01:17
(UTC-04:00)
Language:

VELOX 1 - Orbit

View from above orbital plane
View from above orbital plane
View from above satellite
View from above satellite

Ground track
Ground track

The orbit data is extracted from the following two-line orbital elements,

1 40057U 14034E   24106.80894254  .00007437  00000-0  87559-3 0  9999
2 40057  98.3504 318.9798 0008877 352.0670   8.0402 14.85097758528446
Epoch (UTC): 15 April 2024 19:24:52
Eccentricity: 0.0008877
inclination: 98.3504°
perigee height: 607 km
apogee height: 619 km
right ascension of ascending node: 318.9798°
argument of perigee: 352.0670°
revolutions per day: 14.85097758
mean anomaly at epoch: 8.0402°
orbit number at epoch: 52844

The dashed part of the orbit path shows where the satellite is in the earth's shadow,  

DLR